Content
SEND FEEDBACK

Daily
Averages
Monthly
Summary
United States of America

FAIRPLAY, COLORADO


Home > North America > United States > Colorado
Elevation: 10010 feet     Latitude: 39 14N     Longitude: 106 00W

WEATHER
 
SELECT A DAY
Number of Records: 193,198;   Date Range: 1/4/95 - 10/29/14
 
SHARE

PRINT THIS DATA

[ ← Previous Day ]
WEATHER ALMANAC - JANUARY 3, 2013
[ Next Day → ]
[ °C ]   °F
Weather ElementAverageHighLow
Temperature3.2 °F23 °F (1:53 pm)-17 °F (7:53 am)
Dewpoint-11.7 °F-5.1 °F (10:53 am)-22 °F (7:53 am)
Humidity55.8 %82 % (4:53 am)21 % (12:53 pm)
Barometer30.40 in30.58 in (7:53 am)30.25 in (1:53 pm)
Wind Speed4.3 mph11.5 mph (2:53 pm)
Weather ElementAverage
Visibility10 mi
Wind DirectionESE (128.7 °)

Weather ElementTotal
Precipitation---
Heating Degree Days62 (Base 65)
Averaged from 23 records on January 3, 2013
WEATHER CONDITIONS BREAKOUT
WIND DIRECTION BREAKOUT
WEATHER BY HOUR - JANUARY 3, 2013
[ °C ]   °F
Local TimeTemperatureDewpointHumidityBarometerVisibilityWind DirectionWind SpeedGust SpeedPrecipitationEventsConditions
1:53 AM-9.0 °F-14.1 °F79 %30.35 in10.0 miNE (50°)6.9 mphClear
2:53 AM-9.9 °F-16.1 °F74 %30.36 in10.0 miWSW (250°)3.5 mphClear
3:53 AM-13.0 °F-18.9 °F75 %30.42 in10.0 miNE (40°)3.5 mphClear
4:53 AM-13.0 °F-17.0 °F82 %30.45 in10.0 miNE (40°)4.6 mphClear
5:53 AM-13.0 °F-17.0 °F82 %30.51 in10.0 miNE (40°)3.5 mphClear
6:53 AM-14.1 °F-18.9 °F79 %30.53 in10.0 miEast (80°)3.5 mphClear
7:53 AM-17.0 °F-22.0 °F78 %30.58 in10.0 miNorth (360°)3.5 mphClear
8:53 AM-5.1 °F-11.0 °F76 %30.49 in10.0 miNNE (30°)3.5 mphClear
9:53 AM1.9 °F-7.1 °F66 %30.45 in10.0 miCalmClear
10:53 AM5.0 °F-5.1 °F63 %30.41 in10.0 miSouth (180°)3.5 mphClear
11:53 AM16.0 °F-7.1 °F36 %30.33 in10.0 miCalmClear
12:53 PM21.9 °F-13.0 °F21 %30.26 in10.0 miNorth (10°)5.8 mphClear
1:53 PM23.0 °F-11.0 °F22 %30.25 in10.0 miNNW (340°)9.2 mphClear
2:53 PM23.0 °F-11.9 °F21 %30.26 in10.0 miNorth (350°)11.5 mphClear
3:53 PM21.0 °F-11.0 °F24 %30.31 in10.0 miNorth (360°)10.4 mphClear
4:53 PM15.1 °F-11.0 °F31 %30.37 in10.0 miNW (310°)6.9 mphClear
5:53 PM7.0 °F-8.0 °F51 %30.45 in10.0 miNNW (340°)6.9 mphClear
6:53 PM7.0 °F-7.1 °F53 %30.48 in10.0 miVariable3.5 mphClear
7:53 PM3.9 °F-7.1 °F60 %30.53 in10.0 miCalmClear
8:53 PM1.9 °F-9.0 °F60 %30.46 in10.0 miNE (50°)4.6 mphClear
9:53 PM5.0 °F-8.0 °F55 %30.38 in10.0 miCalmClear
10:53 PM8.1 °F-8.0 °F48 %30.33 in10.0 miSE (130°)3.5 mphClear
11:53 PM7.0 °F-9.0 °F48 %30.26 in10.0 miCalmClear
Hourly data recorded from KLXV, located miles away from Fairplay, Colorado







STORIES FROM OUR PARTNERS